[[{"header":{"parameterUnit":"m.s-1","parameterCategory":1,"la1":30.2991,"la2":30.254,"lo1":-89.0895,"lo2":-89.0444,"dy":0.0017,"dx":0.0017,"nx":28,"ny":28,"refTime":"2025-06-04T09:00:00:Z","depth":0,"parameterNumber":2,"parameterNumberName":"U-component_of_WINDS"},"data":[0,0,0,0,0,0,0,0,0,0,0,0,0,0,0,0,0,0,0,0,0,0,0,0,0,0,0,0,0,0,0,0,0,0,0,0,0,0,0,0,0,0,0,0,0,0,0,0,0,0,0,0,0,0,0,0,0,0,0.7026,0.7027,0,0.71,0.7101,0.7102,0.7112,0.7112,0.7111,0.711,0.7188,0.7191,0.7194,0,0,0,0,0,0,0,0,0,0,0,0,0,0.6894,0.6896,0.7026,0.7027,0.7028,0.71,0.7101,0.7102,0.7112,0.7112,0.7111,0.711,0.7187,0.7191,0.7194,0,0,0,0,0,0,0,0,0,0,0,0,0,0.6958,0.6897,0.7026,0.7042,0.7044,0.71,0.7101,0.7102,0.7113,0.7112,0.711,0.711,0.7186,0.719,0.7194,0.724,0,0,0.7207,0.7208,0,0,0,0,0,0,0,0,0.6954,0.6963,0.7038,0.7041,0.7043,0.7096,0.7083,0.7149,0.7113,0.7087,0.711,0.7109,0.7158,0.7165,0.7181,0.7244,0.7247,0.7207,0.721,0.7211,0.7212,0,0,0,0,0,0,0,0.695,0.696,0.7055,0.7039,0.7042,0.7045,0.7053,0.7096,0.7128,0.7089,0.709,0.7098,0.716,0.7177,0.7183,0.7248,0.7207,0.7211,0.7213,0.7215,0.7351,0.7352,0,0,0,0,0,0,0.6942,0.6956,0.7053,0.7058,0.6995,0.7048,0.7057,0.708,0.7127,0.7133,0.7099,0.7098,0.7171,0.7178,0.7186,0.7241,0.7211,0.7215,0.7217,0.7349,0.7351,0.7352,0,0,0,0,0,0,0.694,0.6951,0.705,0.7007,0.702,0.7052,0.7077,0.7082,0.7099,0.7135,0.7141,0.7111,0.717,0.718,0.7226,0.7244,0.7217,0.7221,0.7348,0.735,0.7352,0.7353,0,0,0,0,0,0,0.6936,0.695,0.6968,0.7007,0.7022,0.7089,0.7078,0.7084,0.7106,0.7106,0.7147,0.7153,0.717,0.722,0.723,0.7249,0.7224,0.7347,0.7349,0.7351,0.7352,0.7355,0.7357,0,0,0,0,0,0.6931,0.6966,0.6968,0.698,0.7045,0.709,0.7098,0.7116,0.7108,0.7126,0.7148,0.7152,0.724,0.7224,0.7236,0.7257,0.7346,0.7348,0.7351,0.735,0.7354,0.7357,0,0,0,0,0,0,0.6929,0.6972,0.6975,0.7024,0.7053,0.7092,0.7115,0.712,0.7153,0.7151,0.7173,0.7182,0.7227,0.7247,0.7228,0.7303,0.7292,0.7297,0.7288,0.7292,0.7295,0.7289,0.7227,0,0,0,0,0,0.6934,0.6966,0.7002,0.7042,0.7056,0.7083,0.7103,0.7114,0.7146,0.7158,0.7184,0.7215,0.7249,0.7272,0.7306,0.7355,0.7363,0.7374,0.7377,0.7379,0.7383,0.7409,0.7414,0.7361,0.7361,0.7361,0,0,0.6945,0.6972,0.6992,0.7042,0.7066,0.7099,0.7093,0.7129,0.7154,0.7164,0.7208,0.7228,0.7264,0.7311,0.7333,0.7329,0.74,0.7383,0.7384,0.7387,0.7412,0.7417,0.7422,0.7363,0.7362,0.7362,0,0,0.6981,0.7006,0.7041,0.7064,0.71,0.7117,0.7126,0.7163,0.7177,0.7221,0.7229,0.7259,0.7319,0.7343,0.7363,0.7407,0.7412,0.7418,0.7433,0.7457,0.7462,0.7465,0.748,0.7485,0.7422,0.7422,0.7422,0,0.6991,0.704,0.7058,0.7093,0.7114,0.7124,0.7159,0.7182,0.7227,0.7241,0.7236,0.7309,0.7334,0.7386,0.7397,0.7413,0.7423,0.7413,0.746,0.7464,0.7467,0.7481,0.7487,0.7422,0.7422,0.7422,0.7422,0,0.7049,0.7084,0.7108,0.715,0.7174,0.7209,0.7231,0.7254,0.7263,0.728,0.7325,0.7355,0.7394,0.7407,0.7417,0.7461,0.7457,0.7455,0.7445,0.7472,0.7486,0.7492,0.7423,0.7423,0.7423,0.7422,0,0,0.7087,0.7137,0.7146,0.7164,0.7204,0.7231,0.7266,0.7303,0.7321,0.7352,0.7381,0.743,0.7429,0.7452,0.7464,0.7486,0.7517,0.7481,0.7483,0.7486,0.7565,0.7565,0.7571,0.752,0.7521,0.7522,0.7561,0,0.7127,0.7189,0.7205,0.7258,0.7289,0.7298,0.7328,0.7355,0.7373,0.7402,0.7421,0.7455,0.7451,0.7465,0.7487,0.7508,0.7533,0.7506,0.7547,0.7548,0.7537,0.7578,0.7579,0.7614,0.7567,0.7568,0.7569,0,0.7183,0.7213,0.7268,0.7302,0.7316,0.7342,0.7377,0.7405,0.7436,0.7447,0.7471,0.7481,0.7518,0.7506,0.7556,0.7537,0.7555,0.7568,0.7569,0.7573,0.7559,0.7582,0.7626,0.7631,0.7577,0.7577,0.7576,0,0.7202,0.7257,0.7297,0.7313,0.7354,0.7372,0.739,0.742,0.7441,0.7471,0.7485,0.752,0.7539,0.7565,0.7584,0.7574,0.7632,0.7622,0.7641,0.7641,0.7653,0.7652,0.7699,0.7666,0.7666,0.7666,0.7665,0,0.7245,0.7278,0.7306,0.7331,0.7367,0.7386,0.7422,0.744,0.7467,0.7494,0.7505,0.7531,0.7554,0.7583,0.7598,0.7637,0.7645,0.7655,0.7658,0.7653,0.7652,0.7665,0.7663,0.7667,0.7667,0.7666,0.7666,0,0.7274,0.7294,0.7337,0.7372,0.7381,0.7407,0.7437,0.746,0.7478,0.7513,0.7522,0.7549,0.7583,0.7605,0.7649,0.7659,0.7701,0.7704,0.769,0.7691,0.7709,0.7706,0.7766,0.7774,0.7736,0.7736,0.7737,0,0.7299,0.7324,0.7361,0.738,0.7398,0.7429,0.7449,0.7468,0.7489,0.7526,0.7545,0.758,0.7609,0.7663,0.7687,0.7721,0.7724,0.7743,0.7729,0.7723,0.7723,0.7721,0.7723,0.7745,0.7745,0.7745,0.7745,0,0.7341,0.7349,0.7379,0.7411,0.7436,0.7463,0.7489,0.7504,0.7527,0.7551,0.7586,0.7608,0.7652,0.7686,0.7722,0.774,0.7746,0.7749,0.7755,0.775,0.774,0.7745,0.7695,0.7748,0.7748,0.7747,0.7747,0.7747,0.7368,0.739,0.7419,0.7451,0.7473,0.7497,0.7521,0.754,0.7569,0.7606,0.7615,0.7652,0.7681,0.7729,0.7748,0.7776,0.7774,0.7783,0.7785,0.7787,0.7786,0.7736,0.7783,0.7783,0.7783,0.7783,0.7783,0,0.741,0.7428,0.7458,0.7494,0.7519,0.7522,0.7551,0.7572,0.7603,0.7629,0.7657,0.7696,0.7729,0.7755,0.7789,0.7807,0.781,0.7815,0.7813,0.7817,0.7788,0.7778,0.7811,0.7811,0.7811,0.7811,0.7811,0.7811,0.7434,0.7471,0.7483,0.7531,0.755,0.7584,0.7601,0.7623,0.7644,0.7687,0.7714,0.773,0.7756,0.7791,0.7821,0.7828,0.784,0.7844,0.7851,0.7822,0.7819,0.7816,0.7808,0.7846,0.7846,0.7878,0.7878,0.7878]},{"header":{"parameterUnit":"m.s-1","parameterCategory":1,"la1":30.2991,"la2":30.254,"lo1":-89.0895,"lo2":-89.0444,"dy":0.0017,"dx":0.0017,"nx":28,"ny":28,"refTime":"2025-06-04T09:00:00:Z","depth":0,"parameterNumber":3,"parameterNumberName":"V-component_of_WINDS"},"data":[0,0,0,0,0,0,0,0,0,0,0,0,0,0,0,0,0,0,0,0,0,0,0,0,0,0,0,0,0,0,0,0,0,0,0,0,0,0,0,0,0,0,0,0,0,0,0,0,0,0,0,0,0,0,0,0,0,0,5.3696,5.3698,0,5.3919,5.3922,5.3924,5.3925,5.3922,5.3919,5.3917,5.414,5.4148,5.4157,0,0,0,0,0,0,0,0,0,0,0,0,0,5.3264,5.3272,5.3696,5.3699,5.3701,5.3919,5.3922,5.3925,5.3925,5.3922,5.3918,5.3915,5.4137,5.4147,5.4158,0,0,0,0,0,0,0,0,0,0,0,0,0,5.3466,5.3274,5.3695,5.3728,5.3733,5.3918,5.3922,5.3926,5.3926,5.3922,5.3918,5.3914,5.4134,5.4146,5.4159,5.4325,0,0,5.4199,5.4204,0,0,0,0,0,0,0,0,5.3454,5.3481,5.372,5.3726,5.3732,5.389,5.3852,5.406,5.3927,5.3853,5.3916,5.3911,5.406,5.4079,5.413,5.4336,5.4345,5.42,5.4208,5.4213,5.4217,0,0,0,0,0,0,0,5.344,5.3472,5.3784,5.3724,5.3731,5.373,5.3754,5.3891,5.3977,5.3859,5.3859,5.3886,5.4062,5.4117,5.4135,5.4348,5.4199,5.4211,5.4219,5.4224,5.47,5.4705,0,0,0,0,0,0,5.342,5.346,5.3777,5.3791,5.358,5.3741,5.3768,5.3844,5.3976,5.3992,5.389,5.3885,5.4097,5.412,5.4143,5.4345,5.4213,5.4225,5.4233,5.4695,5.4701,5.4707,0,0,0,0,0,0,5.3411,5.3449,5.3768,5.3626,5.3666,5.3753,5.3838,5.385,5.3905,5.4,5.4014,5.3931,5.4095,5.4125,5.428,5.4353,5.4231,5.4243,5.469,5.4697,5.4704,5.4752,0,0,0,0,0,0,5.3399,5.3445,5.3511,5.3627,5.3674,5.3903,5.3843,5.3858,5.3928,5.3925,5.4042,5.4057,5.4094,5.4261,5.4293,5.4369,5.4253,5.4683,5.4693,5.4702,5.4744,5.476,5.4773,0,0,0,0,0,5.3383,5.3514,5.3514,5.3552,5.3758,5.3907,5.3934,5.3975,5.3934,5.4,5.406,5.4053,5.434,5.4277,5.4313,5.4394,5.4679,5.469,5.4701,5.4737,5.4757,5.4773,0,0,0,0,0,0,5.3402,5.353,5.3531,5.3704,5.3795,5.3907,5.3991,5.3995,5.4098,5.409,5.4135,5.4161,5.4316,5.437,5.4297,5.4561,5.4504,5.4523,5.452,5.4539,5.4553,5.4536,5.4264,0,0,0,0,0,5.3426,5.3539,5.3644,5.3786,5.3832,5.3904,5.3971,5.3995,5.409,5.4128,5.4199,5.4291,5.4401,5.4473,5.458,5.4752,5.4777,5.4825,5.484,5.4852,5.4867,5.4961,5.4983,5.4743,5.4743,5.4743,0,0,5.3477,5.3561,5.3629,5.3792,5.3866,5.3979,5.3936,5.4058,5.4143,5.4146,5.4297,5.4353,5.4457,5.4622,5.4697,5.4672,5.4939,5.4866,5.4874,5.4884,5.4974,5.4997,5.5017,5.475,5.4749,5.4748,0,0,5.3629,5.3704,5.3831,5.3906,5.4018,5.4065,5.4095,5.4207,5.4245,5.4398,5.4402,5.4502,5.4692,5.4766,5.4829,5.5008,5.5005,5.5042,5.5118,5.5209,5.5228,5.5245,5.5308,5.533,5.5057,5.5057,5.5057,0,5.3678,5.3851,5.3895,5.4018,5.4089,5.4099,5.4227,5.4296,5.4437,5.4485,5.4454,5.4693,5.4764,5.4945,5.4989,5.504,5.5074,5.5028,5.5222,5.524,5.5256,5.5316,5.534,5.5061,5.506,5.506,5.506,0,5.3905,5.4025,5.4114,5.4251,5.4332,5.4456,5.4517,5.4594,5.4611,5.466,5.4815,5.4901,5.5025,5.507,5.5087,5.5254,5.5234,5.5213,5.5157,5.5282,5.5339,5.5363,5.5066,5.5065,5.5064,5.5063,0,0,5.4074,5.4235,5.4266,5.4328,5.4453,5.4546,5.467,5.4793,5.4857,5.4954,5.5058,5.5219,5.5199,5.527,5.5296,5.5376,5.5511,5.5345,5.5348,5.5372,5.5699,5.5713,5.574,5.5511,5.5515,5.5519,5.5689,0,5.4238,5.4461,5.4504,5.4697,5.4807,5.4819,5.4927,5.5014,5.5063,5.5163,5.5216,5.5329,5.5296,5.5339,5.5419,5.5478,5.5577,5.5466,5.5606,5.5611,5.5579,5.577,5.5786,5.5943,5.5712,5.5716,5.5719,0,5.4459,5.4562,5.4767,5.4876,5.4924,5.5021,5.5137,5.5233,5.5331,5.5361,5.5441,5.5458,5.5585,5.5524,5.57,5.5623,5.5683,5.5721,5.5728,5.5742,5.5672,5.5788,5.5994,5.6017,5.5755,5.5752,5.5749,0,5.456,5.475,5.4897,5.495,5.5082,5.5149,5.5207,5.5301,5.5373,5.5474,5.552,5.5634,5.5696,5.5783,5.5829,5.5781,5.6001,5.5944,5.6028,5.6027,5.6073,5.607,5.6291,5.6113,5.6113,5.6113,5.6112,0,5.4737,5.4862,5.4945,5.5035,5.5174,5.5222,5.5358,5.5414,5.5498,5.5598,5.5614,5.5707,5.5763,5.5864,5.5901,5.604,5.6068,5.6095,5.6103,5.6093,5.6089,5.6132,5.6122,5.6119,5.6117,5.6116,5.6115,0,5.4874,5.4934,5.5095,5.5207,5.5238,5.5336,5.543,5.5517,5.5567,5.5693,5.5726,5.5803,5.5922,5.5978,5.6125,5.615,5.6308,5.6309,5.6275,5.6278,5.6358,5.635,5.6614,5.6651,5.645,5.6451,5.6453,0,5.4983,5.5079,5.5201,5.5271,5.533,5.5441,5.5515,5.5565,5.564,5.5759,5.5832,5.5952,5.6051,5.6241,5.6309,5.6422,5.6425,5.651,5.6442,5.6428,5.6425,5.6418,5.6428,5.6522,5.6524,5.6525,5.6526,0,5.5169,5.5195,5.5301,5.5417,5.5505,5.5599,5.569,5.5745,5.581,5.5893,5.6017,5.6094,5.6245,5.6363,5.6481,5.6538,5.6543,5.6548,5.6573,5.6563,5.6539,5.6553,5.6307,5.6541,5.654,5.6538,5.6538,5.6537,5.5295,5.538,5.548,5.5598,5.5672,5.5758,5.5845,5.5906,5.6011,5.6139,5.6162,5.6292,5.6387,5.6546,5.6607,5.6709,5.6689,5.6725,5.6735,5.6743,5.6747,5.6524,5.673,5.673,5.673,5.6729,5.6729,0,5.5481,5.5546,5.5654,5.5783,5.5875,5.5873,5.5975,5.6051,5.6167,5.6256,5.6354,5.6495,5.661,5.6688,5.6804,5.687,5.6875,5.6899,5.6894,5.6907,5.6759,5.6725,5.6893,5.6893,5.6893,5.6893,5.6893,5.6893,5.5589,5.5734,5.5771,5.5953,5.6017,5.6146,5.6204,5.6283,5.6354,5.6512,5.6608,5.6659,5.6743,5.6866,5.6971,5.6991,5.7032,5.7057,5.7075,5.6935,5.6918,5.6901,5.687,5.7066,5.7066,5.7215,5.7217,5.7218]}]]